Погода в Моньки

Польша     53°24′20″N   22°47′52″E
темп.,
°C
ветер,
м/с
пор.,
м/с
влажн.,
%
обл.,
%
осадки,
мм/ч
давл.,
гПа
погр.,
м
25 июля, вс
вс2523:00+19всв3466100 0.0 101681
02:00+16ююв23843 0.0 101623
05:00+16в22854 0.0 101617
08:00+21вюв23665 0.0 1016273
11:00+26юв345110 0.0 10161417
14:00+28юв4444100 0.0 10162488
17:00+27юв465221 0.0 1015779
20:00+22вюв4864100 0.0 1016155
26 июля, пн
пн2623:00+19юв4874100 0.0 1016129
02:00+18юв4970100 0.0 1017174
05:00+18вюв4870100 0.0 1016153
08:00+22вюв5106524 0.0 1016376
11:00+27юв794654 0.0 10161554
14:00+28юв894586 0.0 10151826
17:00+25вюв4859100 0.0 1014645
20:00+22юв41165100 0.0 1014421
27 июля, вт
вт2723:00+19вюв3578100 0.2 1013114
02:00+18юв3994100 1.1 1013258
05:00+18юв499899 1.3 1012293
08:00+21ююв578981 1.4 1012437
11:00+26ююз4664100 0.0 10111305
14:00+22з4787100 1.8 1012422
17:00+20ююз349221 1.4 1012130
20:00+20зюз238946 2.8 101156
28 июля, ср
ср2823:00+18з3593100 0.7 101377
02:00+18з369568 2.3 1012117
05:00+16зюз2294100 0.0 101338
08:00+21зюз368393 0.0 1013293
11:00+25зюз5763100 0.7 10131065
14:00+28зюз794576 0.8 10122651
17:00+25з496090 0.0 1012377
20:00+22зюз22715 0.0 101211
29 июля, чт
чт2923:00+20юз117158 0.0 101211
02:00+18юз227787 0.0 101213
05:00+18сз3480100 0.1 101292
08:00+18з118596 0.3 101321
11:00+24зюз346120 0.0 1013983
14:00+26зюз5550100 0.1 10122081
17:00+26юз455584 0.0 1011838
20:00+22з34665 0.0 101196